Satellite-Ground Cal/Val Site Overpasses Predictions

Prediction of Satellite NPP Overpassing Cal/Val Site: Antarctic Dome C

Ground Cal/Val Site Location: Latitude: -75.10, Longitude: 123.35; Satellite-Ground Site NADIR distance within 100 km.

Table of predicted overpasses for the next 14.0 days since TLE Epoch: 3/5/2022
Interval Starting Time Ending Time Minimum Distance Time Minimum Distance (km)
1 03/05/2022 15:01:27 03/05/2022 15:01:51 03/05/2022 15:01:39 57.50
2 03/06/2022 14:42:37 03/06/2022 14:43:02 03/06/2022 14:42:50 51.63
3 03/07/2022 07:44:18 03/07/2022 07:44:38 03/07/2022 07:44:28 71.31
4 03/08/2022 07:25:26 03/08/2022 07:25:53 03/08/2022 07:25:39 36.57
5 03/10/2022 15:07:52 03/10/2022 15:08:00 03/10/2022 15:07:56 95.36
6 03/11/2022 14:48:51 03/11/2022 14:49:20 03/11/2022 14:49:06 15.85
7 03/13/2022 07:31:41 03/13/2022 07:32:10 03/13/2022 07:31:55 2.68
8 03/16/2022 14:55:09 03/16/2022 14:55:37 03/16/2022 14:55:23 20.66
9 03/17/2022 14:36:26 03/17/2022 14:36:40 03/17/2022 14:36:33 86.30
